Orbital Elements at Epoch 2459200.5 (2020-Dec-17.0) TDB
Reference: JPL 19 (heliocentric ecliptic J2000)
Element | Value | Uncertainty (1-sigma) | Units |
e | .2201669741781957 | 4.8135e-08 | |
a | 2.209247855234207 | 9.3031e-09 | au |
q | 1.722844439737623 | 1.068e-07 | au |
i | 2.090338635685309 | 3.6819e-06 | deg |
node | 127.7996317128093 | 0.00015571 | deg |
peri | 205.9719297787151 | 0.00015617 | deg |
M | 271.0388095103729 | 1.2853e-05 | deg |
tp | 2459496.889746453339 (2021-Oct-09.38974645) | 4.2949e-05 | TDB |
period | 1199.402887213423 3.28 | 7.576e-06 2.074e-08 | d yr |
n | .3001493525135573 | 1.8959e-09 | deg/d |
Q | 2.695651270730791 | 1.1351e-08 | au |
|
| | Orbit Determination Parameters
Additional Information
|